Weather in Razdolnoye

Russia / Republic of Crimea     45°46′12″N   33°29′16″E
temp.,
°C
wind,
m/s
gust,
m/s
humid.,
%
clouds,
%
prec.,
mm/h
press.,
hPa
HPBL,
m
25 january, mon
mon2500:00+9s7148572 0.1 1010636
03:00+9ssw7158857 0.1 1010485
06:00+8s714890 0.0 1010376
09:00+9s715770 0.0 1009366
12:00+13s11165679 0.1 10091371
15:00+11s9167590 0.4 1006748
18:00+10sse71381100 0.6 1005591
21:00+10s111979100 1.3 10021088
26 january, tue
tue2600:00+8sw101669100 2.2 1005960
03:00+6sw9166667 2.2 1007873
06:00+5sw6137035 0.0 1009423
09:00+6s5127968 0.0 1010320
12:00+12s91668100 0.1 10091173
15:00+13ssw91462100 0.3 10081266
18:00+10ssw51283100 0.1 1008440
21:00+9s41088100 0.1 1009321
27 january, wed
wed2700:00+10sse61389100 0.1 1008573
03:00+10se3991100 1.5 1006345
06:00+10se51077100 0.0 1004177
09:00+12se71466100 0.1 1003325
12:00+15se51156100 0.0 1002641
15:00+15s61057100 0.0 999757
18:00+13ese4866100 0.0 999201
21:00+11ssw3674100 0.0 999139
28 january, thu
thu2800:00+10se3574100 0.0 999115
03:00+9ssw2385100 0.0 99971
06:00+8w3395100 2.0 998157
09:00+7wsw5888100 7.0 998551
12:00+8wsw697299 0.6 1000836
15:00+7sw8106899 0.6 10011064
18:00+6sw587195 0.0 10031047
21:00+5sw696897 0.0 10041079
29 january, fri
fri2900:00+5sw6968100 0.0 10051051
03:00+4sw487397 0.1 1006765
06:00+3sw368384 0.1 1007163
09:00+2sw247776 0.2 1008292
12:00+4wsw457195 0.2 1009855
15:00+3w567097 0.3 1010988
18:00+2w577794 0.1 1011781
21:00+2w477195 0.2 1012686